This is the latest recevied weather packets stored in our database for station/object F4THN-13. If no packets are shown the sender has not sent any weather packets the latest 10 day(s).
| Time | Temp. | Humidity | Pressure | Rain* | Wind** | Luminosity | Snow |
|---|---|---|---|---|---|---|---|
| 1777777364 | 15° C | 43% | 1016.9 hPa | 0 mm | - | - | - |
| 1777775864 | 15.56° C | 42% | 1017.1 hPa | 0 mm | - | - | - |
| 1777774364 | 15.56° C | 41% | 1017.3 hPa | 0 mm | - | - | - |
| 1777772864 | 15.56° C | 40% | 1017.5 hPa | 0 mm | - | - | - |
| 1777771363 | 15.56° C | 40% | 1017.7 hPa | 0 mm | - | - | - |
| 1777769863 | 15.56° C | 39% | 1018 hPa | 0 mm | - | - | - |
| 1777768363 | 16.11° C | 38% | 1018.2 hPa | 0 mm | - | - | - |
| 1777766863 | 16.11° C | 38% | 1018.2 hPa | 0 mm | - | - | - |
| 1777765363 | 16.11° C | 38% | 1018.2 hPa | 0 mm | - | - | - |
| 1777763863 | 16.11° C | 38% | 1018.5 hPa | 0 mm | - | - | - |
| 1777762362 | 16.11° C | 37% | 1018.4 hPa | 0 mm | - | - | - |
| 1777760862 | 16.67° C | 37% | 1018.6 hPa | 0 mm | - | - | - |
| 1777759362 | 16.67° C | 37% | 1018.6 hPa | 0 mm | - | - | - |
| 1777757862 | 16.67° C | 37% | 1018.7 hPa | 0 mm | - | - | - |
| 1777756362 | 17.22° C | 37% | 1018.5 hPa | 0 mm | - | - | - |
| 1777754862 | 17.78° C | 37% | 1018.5 hPa | 0 mm | - | - | - |
| 1777753362 | 17.78° C | 37% | 1018.4 hPa | 0 mm | - | - | - |
| 1777751861 | 18.33° C | 36% | 1018.2 hPa | 0 mm | - | - | - |
| 1777750361 | 18.33° C | 37% | 1018.1 hPa | 0 mm | - | - | - |
| 1777748861 | 18.89° C | 35% | 1017.9 hPa | 0 mm | - | - | - |
| 1777747361 | 19.44° C | 35% | 1017.9 hPa | 0 mm | - | - | - |
| 1777745861 | 20° C | 34% | 1018 hPa | 0 mm | - | - | - |
| 1777744361 | 20° C | 32% | 1018 hPa | 0 mm | - | - | - |
| 1777742860 | 20.56° C | 32% | 1017.8 hPa | 0 mm | - | - | - |
| 1777741360 | 21.67° C | 33% | 1018 hPa | 0 mm | - | - | - |
* Rain latest hour (hover to see other rain measurements)
** Current wind speed in m/s (hover to see current wind gust speed)